• In Romania
  • List of Countries
  • For 7 days
  • Water Temperature
  • Satellite Maps
  • Weather Map
  • Weather Widgets
  • user-avatar
    Login

    Hourly Weather Nakhchivan

    Today, 17 July, Tuesday

    Time Temperature Precipitation Wind Pressure Humidity
    00:00 +28°C° 0 mm 2 mps 683 mmHg 45%
    01:00 +27°C° 0 mm 2 mps 682 mmHg 47%
    02:00 +27°C° 0 mm 2 mps 682 mmHg 50%
    03:00 +26°C° 0 mm 2 mps 682 mmHg 55%
    04:00 +26°C° 0 mm 2 mps 682 mmHg 54%
    05:00 +26°C° 0 mm 2 mps 682 mmHg 54%
    06:00 +26°C° 0 mm 2 mps 683 mmHg 53%
    07:00 +27°C° 0 mm 2 mps 683 mmHg 49%
    08:00 +28°C° 0 mm 2 mps 683 mmHg 45%
    09:00 +29°C° 0 mm 2 mps 683 mmHg 42%
    10:00 +31°C° 0.1 mm 2 mps 683 mmHg 39%
    11:00 +32°C° 0.1 mm 2 mps 683 mmHg 36%
    12:00 +34°C° 0.1 mm 2 mps 683 mmHg 33%
    13:00 +34°C° 0.1 mm 3 mps 683 mmHg 32%
    14:00 +35°C° 0.1 mm 3 mps 682 mmHg 31%
    15:00 +35°C° 0.1 mm 3 mps 682 mmHg 29%
    16:00 +34°C° 0.8 mm 3 mps 682 mmHg 35%
    17:00 +31°C° 0.8 mm 3 mps 682 mmHg 41%
    18:00 +30°C° 0.8 mm 3 mps 682 mmHg 47%
    19:00 +29°C° 0.1 mm 3 mps 682 mmHg 49%
    20:00 +29°C° 0.1 mm 3 mps 683 mmHg 50%
    21:00 +28°C° 0.1 mm 2 mps 683 mmHg 52%
    22:00 +27°C° 0 mm 2 mps 683 mmHg 53%
    23:00 +27°C° 0 mm 2 mps 683 mmHg 55%

    Tomorrow, 18 July, Wednesday

    Time Temperature Precipitation Wind Pressure Humidity
    00:00 +26°C° 0 mm 2 mps 684 mmHg 56%
    01:00 +26°C° 0 mm 2 mps 683 mmHg 57%
    02:00 +25°C° 0 mm 2 mps 683 mmHg 59%
    03:00 +25°C° 0 mm 2 mps 683 mmHg 60%
    04:00 +25°C° 0 mm 2 mps 683 mmHg 58%
    05:00 +25°C° 0 mm 2 mps 683 mmHg 57%
    06:00 +25°C° 0 mm 2 mps 683 mmHg 56%
    07:00 +27°C° 0 mm 1 mps 683 mmHg 50%
    08:00 +28°C° 0 mm 1 mps 683 mmHg 44%
    09:00 +30°C° 0 mm 1 mps 683 mmHg 38%
    10:00 +31°C° 0 mm 1 mps 683 mmHg 35%
    11:00 +34°C° 0 mm 2 mps 682 mmHg 31%
    12:00 +35°C° 0 mm 2 mps 682 mmHg 28%
    13:00 +36°C° 0 mm 2 mps 682 mmHg 27%
    14:00 +37°C° 0 mm 3 mps 682 mmHg 25%
    15:00 +38°C° 0 mm 3 mps 681 mmHg 24%
    16:00 +38°C° 0 mm 3 mps 681 mmHg 24%
    17:00 +38°C° 0 mm 3 mps 681 mmHg 24%
    18:00 +38°C° 0 mm 3 mps 681 mmHg 24%
    19:00 +36°C° 0 mm 3 mps 681 mmHg 28%
    20:00 +34°C° 0 mm 3 mps 682 mmHg 33%
    21:00 +33°C° 0 mm 3 mps 682 mmHg 37%
    22:00 +31°C° 0 mm 3 mps 682 mmHg 39%
    23:00 +30°C° 0 mm 2 mps 682 mmHg 41%

    Day after tomorrow, 19 July, Thursday

    Time Temperature Precipitation Wind Pressure Humidity
    00:00 +29°C° 0 mm 2 mps 682 mmHg 43%
    01:00 +29°C° 0 mm 2 mps 682 mmHg 44%
    02:00 +28°C° 0 mm 2 mps 682 mmHg 45%
    03:00 +28°C° 0 mm 1 mps 682 mmHg 47%
    04:00 +28°C° 0 mm 1 mps 682 mmHg 46%
    05:00 +28°C° 0 mm 1 mps 682 mmHg 45%
    06:00 +29°C° 0 mm 1 mps 682 mmHg 44%
    07:00 +30°C° 0 mm 1 mps 682 mmHg 39%
    08:00 +32°C° 0 mm 1 mps 683 mmHg 35%
    09:00 +33°C° 0 mm 1 mps 683 mmHg 31%
    10:00 +35°C° 0 mm 1 mps 683 mmHg 27%
    11:00 +37°C° 0 mm 2 mps 683 mmHg 24%
    12:00 +38°C° 0 mm 2 mps 683 mmHg 21%
    13:00 +39°C° 0 mm 2 mps 682 mmHg 18%
    14:00 +40°C° 0 mm 2 mps 682 mmHg 16%
    15:00 +42°C° 0 mm 3 mps 682 mmHg 14%
    16:00 +42°C° 0 mm 3 mps 682 mmHg 14%
    17:00 +40°C° 0 mm 3 mps 682 mmHg 13%
    18:00 +40°C° 0 mm 3 mps 682 mmHg 13%
    19:00 +38°C° 0 mm 3 mps 682 mmHg 17%
    20:00 +36°C° 0 mm 3 mps 682 mmHg 21%
    21:00 +34°C° 0 mm 3 mps 683 mmHg 25%
    22:00 +33°C° 0 mm 3 mps 683 mmHg 28%
    23:00 +31°C° 0 mm 3 mps 682 mmHg 32%

    20 July, Friday

    Time Temperature Precipitation Wind Pressure Humidity
    00:00 +31°C° 0 mm 2 mps 682 mmHg 35%
    01:00 +30°C° 0 mm 2 mps 682 mmHg 37%
    02:00 +29°C° 0 mm 2 mps 682 mmHg 39%
    03:00 +28°C° 0 mm 2 mps 682 mmHg 41%
    04:00 +29°C° 0 mm 2 mps 682 mmHg 41%
    05:00 +29°C° 0 mm 2 mps 682 mmHg 41%
    06:00 +29°C° 0 mm 1 mps 683 mmHg 41%
    07:00 +31°C° 0 mm 1 mps 683 mmHg 36%
    08:00 +32°C° 0 mm 1 mps 683 mmHg 31%
    09:00 +34°C° 0 mm 1 mps 683 mmHg 26%
    10:00 +36°C° 0 mm 2 mps 683 mmHg 22%
    11:00 +38°C° 0 mm 2 mps 683 mmHg 18%
    12:00 +39°C° 0 mm 3 mps 683 mmHg 15%
    13:00 +40°C° 0 mm 3 mps 682 mmHg 13%
    14:00 +42°C° 0 mm 3 mps 682 mmHg 11%
    15:00 +43°C° 0 mm 3 mps 681 mmHg 9%
    16:00 +43°C° 0 mm 3 mps 681 mmHg 8%
    17:00 +43°C° 0 mm 3 mps 681 mmHg 8%
    18:00 +43°C° 0 mm 4 mps 681 mmHg 7%
    19:00 +40°C° 0 mm 4 mps 681 mmHg 13%
    20:00 +37°C° 0 mm 4 mps 681 mmHg 18%
    21:00 +34°C° 0 mm 4 mps 681 mmHg 24%
    22:00 +33°C° 0 mm 3 mps 681 mmHg 28%
    23:00 +31°C° 0 mm 3 mps 681 mmHg 31%

    21 July, Saturday

    Time Temperature Precipitation Wind Pressure Humidity
    00:00 +30°C° 0 mm 3 mps 681 mmHg 35%
    01:00 +30°C° 0 mm 2 mps 681 mmHg 36%
    02:00 +29°C° 0 mm 2 mps 681 mmHg 37%
    03:00 +28°C° 0 mm 2 mps 681 mmHg 38%
    04:00 +29°C° 0 mm 2 mps 681 mmHg 37%
    05:00 +29°C° 0 mm 2 mps 682 mmHg 36%
    06:00 +29°C° 0 mm 2 mps 682 mmHg 36%
    07:00 +31°C° 0 mm 2 mps 682 mmHg 32%
    08:00 +32°C° 0 mm 2 mps 682 mmHg 29%
    09:00 +35°C° 0 mm 2 mps 682 mmHg 26%
    10:00 +36°C° 0 mm 2 mps 682 mmHg 23%
    11:00 +37°C° 0 mm 2 mps 682 mmHg 20%
    12:00 +38°C° 0 mm 2 mps 682 mmHg 18%
    13:00 +39°C° 0 mm 2 mps 681 mmHg 16%
    14:00 +39°C° 0 mm 2 mps 681 mmHg 15%
    15:00 +40°C° 0 mm 3 mps 681 mmHg 14%
    16:00 +40°C° 0 mm 3 mps 681 mmHg 14%
    17:00 +40°C° 0 mm 3 mps 681 mmHg 14%
    18:00 +40°C° 0 mm 4 mps 681 mmHg 15%
    19:00 +37°C° 0 mm 3 mps 681 mmHg 21%
    20:00 +35°C° 0 mm 3 mps 681 mmHg 26%
    21:00 +33°C° 0 mm 3 mps 682 mmHg 32%
    22:00 +33°C° 0 mm 3 mps 682 mmHg 36%
    23:00 +31°C° 0 mm 3 mps 682 mmHg 40%

    22 July, Sunday

    Time Temperature Precipitation Wind Pressure Humidity
    00:00 +30°C° 0 mm 3 mps 682 mmHg 43%
    01:00 +29°C° 0 mm 3 mps 682 mmHg 46%
    02:00 +28°C° 0 mm 3 mps 682 mmHg 48%
    03:00 +28°C° 0 mm 2 mps 682 mmHg 51%
    04:00 +28°C° 0 mm 2 mps 682 mmHg 50%
    05:00 +28°C° 0 mm 2 mps 682 mmHg 50%
    06:00 +28°C° 0 mm 2 mps 682 mmHg 49%
    07:00 +29°C° 0 mm 2 mps 682 mmHg 44%
    08:00 +31°C° 0 mm 2 mps 682 mmHg 40%
    09:00 +32°C° 0 mm 2 mps 682 mmHg 35%
    10:00 +35°C° 0 mm 2 mps 682 mmHg 31%
    11:00 +36°C° 0 mm 2 mps 682 mmHg 27%
    12:00 +37°C° 0 mm 2 mps 682 mmHg 23%
    13:00 +38°C° 0 mm 3 mps 681 mmHg 21%
    14:00 +39°C° 0 mm 3 mps 681 mmHg 20%
    15:00 +41°C° 0 mm 4 mps 681 mmHg 18%
    16:00 +40°C° 0 mm 4 mps 681 mmHg 19%
    17:00 +40°C° 0 mm 5 mps 681 mmHg 20%
    18:00 +39°C° 0 mm 5 mps 681 mmHg 21%
    19:00 +37°C° 0 mm 4 mps 681 mmHg 26%
    20:00 +35°C° 0 mm 4 mps 681 mmHg 30%
    21:00 +33°C° 0 mm 3 mps 681 mmHg 35%
    22:00 +31°C° 0 mm 3 mps 681 mmHg 37%
    23:00 +30°C° 0 mm 3 mps 681 mmHg 40%
    Show more